Regional Weather Roundup
Issued by NWS

Home | Current Version | Previous Version | Graphics & Text | Print | Product List | Glossary On
Versions: 1 2 3 4 5 6 7 8 9 10 11 12 13 14 15 16 17 18 19 20 21 22 23 24 25 26 27 28 29 30 31 32 33 34 35 36 37 38 39 40 41 42 43 44 45 46 47 48 49 50
000
ASUS43 KLMK 030310
RWRKY
KENTUCKY REGIONAL WEATHER ROUNDUP
NATIONAL WEATHER SERVICE LOUISVILLE KY
1100 PM EDT THU JUL 02 2015

NOTE "FAIR" INDICATES FEW OR NO CLOUDS BELOW 12,000 FEET
WITH NO SIGNIFICANT WEATHER AND/OR OBSTRUCTIONS TO VISIBILITY.

KYZ001>023-026-027-061>063-070>075-030400-
WESTERN AND SOUTH CENTRAL KENTUCKY

CITY           SKY/WX    TMP DP  RH WIND       PRES   REMARKS
PADUCAH        CLOUDY    75  69  81 N8        29.84S
HENDERSON      CLOUDY    75  70  83 N5        29.84F
OWENSBORO      MOCLDY    76  71  84 CALM      29.85F
HOPKINSVILLE   CLOUDY    74  71  91 SW6       29.86S
BOWLING GREEN  LGT RAIN  73  70  90 SE3       29.85F
GLASGOW        CLOUDY    69  69 100 CALM      29.87F
$$

KYZ024-025-028>034-038-045-046-053-030400-
NORTH CENTRAL KENTUCKY

CITY           SKY/WX    TMP DP  RH WIND       PRES   REMARKS
LOUISVILLE/SDF CLOUDY    73  69  87 E6        29.86S
LOUISVILLE/LOU LGT RAIN  72  69  90 NE3       29.88R
FORT KNOX      CLOUDY    73  70  88 CALM      29.86R
$$

KYZ035>037-039>044-047>052-055>060-089>105-030400-
NORTHEAST KENTUCKY

CITY           SKY/WX    TMP DP  RH WIND       PRES   REMARKS
LEXINGTON      CLOUDY    72  69  90 E5        29.90R
COVINGTON      CLOUDY    70  68  93 E5        29.92R FOG
FRANKFORT      CLOUDY    72  67  84 E5        29.89R
$$

KYZ054-064>069-076>088-106>120-030400-
SOUTHEAST KENTUCKY

CITY           SKY/WX    TMP DP  RH WIND       PRES   REMARKS
JACKSON        CLOUDY    69  67  93 CALM      29.93R
LONDON         LGT RAIN  73  66  78 S5        29.91S
SOMERSET       MOCLDY    70  70 100 CALM      29.90S
MIDDLESBORO    LGT RAIN  70  70  99 CALM      29.94S
MONTICELLO     CLOUDY    70  70 100 CALM      29.92R FOG
$$



USA.gov is the U.S. government's official web portal to all federal, state and local government web resources and services.